Regional Weather Roundup
Issued by NWS

Home | Current Version | Previous Version | Text Only | Print | Product List | Glossary Off
Versions: 1 2 3 4 5 6 7 8 9 10 11 12 13 14 15 16 17 18 19 20 21 22 23 24 25 26 27 28 29 30 31 32 33 34 35 36 37 38 39 40 41 42 43 44 45 46 47 48 49 50

000
ASUS43 KLMK 290410
RWRKY
NATIONAL WEATHER SERVICE LOUISVILLE KY
1100 PM EST FRI NOV 28 2014

NOTE "FAIR" INDICATES FEW OR NO CLOUDS BELOW 12,000 FEET
WITH NO SIGNIFICANT WEATHER AND/OR OBSTRUCTIONS TO VISIBILITY.

KYZ001>023-026-027-061>063-070>075-290500-
WESTERN AND SOUTH CENTRAL KENTUCKY

CITY           SKY/WX    TMP DP  RH WIND       PRES   REMARKS
PADUCAH        CLEAR     42  27  55 S5        30.04S
HENDERSON      CLEAR     36  25  64 S7        30.04F WCI  30
OWENSBORO      PTCLDY    35  27  73 S8        30.06S WCI  28
HOPKINSVILLE   CLEAR     43  24  47 S12G20    30.08F
BOWLING GREEN  CLOUDY    44  21  40 S14G23    30.10S
GLASGOW        PTCLDY    40  21  46 S5        30.11R
$$

KYZ024-025-028>034-038-045-046-053-290500-
NORTH CENTRAL KENTUCKY

CITY           SKY/WX    TMP DP  RH WIND       PRES   REMARKS
LOUISVILLE/SDF CLOUDY    36  22  56 SE6       30.07F WCI  31
LOUISVILLE/LOU MOCLDY    36  20  52 SE3       30.08F
FORT KNOX      MOCLDY    36  21  55 S7        30.05F WCI  30
$$

KYZ035>037-039>044-047>052-055>060-089>105-290500-
NORTHEAST KENTUCKY

CITY           SKY/WX    TMP DP  RH WIND       PRES   REMARKS
LEXINGTON      CLEAR     32  19  58 S10       30.10S WCI  24
COVINGTON      CLOUDY    31  18  58 SE7       30.09F WCI  24
FRANKFORT      PTCLDY    32  19  58 S6        30.09S WCI  26
$$

KYZ054-064>069-076>088-106>120-290500-
SOUTHEAST KENTUCKY

CITY           SKY/WX    TMP DP  RH WIND       PRES   REMARKS
JACKSON        CLEAR     31  17  56 SW5       30.11F WCI  26
LONDON         PTCLDY    32  19  58 SE5       30.14S WCI  27
SOMERSET       CLEAR     34  19  55 S5        30.15F WCI  30
MIDDLESBORO    NOT AVBL
MONTICELLO     PTCLDY    40  21  46 S8        30.15F WCI  34
$$



USA.gov is the U.S. government's official web portal to all federal, state and local government web resources and services.